Home   Weather   Road Town   Past weeks
Flag for British Virgin Islands

Past Weather in Road Town, Tortola, British Virgin Islands — Yesterday and Last 2 Weeks

Now
82 °F

Passing clouds.


Feels Like: 88 °F
Forecast: 85 / 80 °F
Wind: 7 mph from East

Location: Beef Island - Tortola

Current Time: Oct 23, 2019 at 7:44:07 am

Latest Report: Oct 23, 2019 at 7:00 am


Visibility: 10 mi

Pressure: 29.92 "Hg

Humidity: 74%

Dew Point: 73 °F

Location of Road TownLocation

Past Weather in Road Town — Graph

°F

Road Town Temperature Yesterday

Maximum temperature yesterday: 90 °F (at 2:00 pm)
Minimum temperature yesterday: 81 °F (at 7:00 am)
Average temperature yesterday: 84 °F

High & Low Weather Summary for the Past Weeks

 TemperatureHumidityPressure
High90 °F (Oct 8, 12:00 pm)100% (Oct 20, 1:00 pm)30.03 "Hg (Oct 20, 1:00 pm)
Low73 °F (Oct 20, 1:00 pm)55% (Oct 13, 3:00 pm)29.83 "Hg (Oct 11, 3:00 pm)
Average85 °F71%29.94 "Hg
* Reported Oct 7 10:00 pm — Oct 22 10:00 pm, Road Town. Weather by CustomWeather, © 2019

Note: Actual official high and low records may vary slightly from our data, if they occured in-between our weather recording intervals... More about our weather records

Advertising

Road Town Weather History for the Previous 24 Hours

Scroll right to see more
 ConditionsComfort  
Time TempWeatherWind HumidityBarometerVisibility
10:00 pm
Tue, Oct 22
81 °FPassing clouds.7 mph79%29.93 "Hg10 mi
9:00 pm81 °FPassing clouds.7 mph84%29.92 "Hg10 mi
8:00 pm82 °FPassing clouds.6 mph84%29.91 "Hg10 mi
7:00 pm82 °FPassing clouds.6 mph79%29.91 "Hg10 mi
6:00 pm84 °FPassing clouds.5 mph70%29.90 "Hg10 mi
5:00 pm84 °FScattered clouds.5 mph74%29.89 "Hg10 mi
4:00 pm86 °FPassing clouds.8 mph70%29.88 "Hg10 mi
3:00 pm88 °FThundershowers. Passing clouds.9 mph62%29.90 "Hg10 mi
2:00 pm90 °FScattered showers. Scattered clouds.8 mph59%29.92 "Hg10 mi
1:00 pm88 °FScattered showers. Scattered clouds.7 mph66%29.93 "Hg10 mi
12:00 pm86 °FScattered showers. Scattered clouds.6 mph70%29.96 "Hg10 mi
11:00 am81 °FSprinkles. Scattered clouds.12 mph84%29.98 "Hg10 mi
10:00 am88 °FScattered clouds.7 mph66%29.99 "Hg10 mi
9:00 am86 °FScattered showers. Scattered clouds.9 mph70%29.98 "Hg10 mi
8:00 am84 °FScattered showers. Scattered clouds.8 mph74%29.97 "Hg10 mi
7:00 am81 °FScattered showers. Partly sunny.6 mph84%29.94 "Hg10 mi
Weather by CustomWeather, © 2019

See weather overview